TimeEST,TemperatureF,Dew PointF,Humidity,Sea Level PressureIn,VisibilityMPH,Wind Direction,Wind SpeedMPH,Gust SpeedMPH,PrecipitationIn,Events,Conditions,WindDirDegrees,DateUTC
12:52 AM,24.1,19.0,81,29.65,10.0,WSW,4.6,-,N/A,,Overcast,240,2013-03-04 05:52:00
1:52 AM,24.1,18.0,77,29.65,10.0,SW,4.6,-,N/A,,Overcast,230,2013-03-04 06:52:00
2:52 AM,23.0,18.0,81,29.65,10.0,WSW,4.6,-,N/A,,Overcast,240,2013-03-04 07:52:00
3:52 AM,23.0,18.0,81,29.65,10.0,WSW,4.6,-,N/A,,Overcast,240,2013-03-04 08:52:00
4:12 AM,23.0,17.6,80,29.61,10.0,West,4.6,-,N/A,,Overcast,260,2013-03-04 09:12:00
4:52 AM,23.0,18.0,81,29.66,10.0,WSW,4.6,-,N/A,,Overcast,240,2013-03-04 09:52:00
6:52 AM,23.0,17.1,78,29.67,10.0,West,4.6,-,N/A,,Overcast,260,2013-03-04 11:52:00
7:39 AM,23.0,17.6,80,29.62,1.8,WSW,3.5,-,0.00,Snow,Light Snow,250,2013-03-04 12:39:00
7:49 AM,23.0,17.6,80,29.62,1.0,WSW,4.6,-,0.01,Snow,Light Snow,250,2013-03-04 12:49:00
7:52 AM,23.0,18.0,81,29.67,1.2,WSW,4.6,-,0.01,Snow,Light Snow,250,2013-03-04 12:52:00
8:18 AM,23.0,17.6,80,29.62,2.5,West,5.8,-,0.00,Snow,Light Snow,260,2013-03-04 13:18:00
8:26 AM,23.0,17.6,80,29.62,3.0,West,5.8,-,0.01,Snow,Light Snow,260,2013-03-04 13:26:00
8:34 AM,23.0,17.6,80,29.62,1.8,West,5.8,-,0.01,Snow,Light Snow,260,2013-03-04 13:34:00
8:48 AM,23.0,17.6,80,29.62,1.0,West,4.6,-,0.01,Snow,Light Snow,280,2013-03-04 13:48:00
8:52 AM,23.0,18.0,81,29.67,1.0,West,5.8,-,0.02,Snow,Light Snow,270,2013-03-04 13:52:00
9:06 AM,23.0,17.6,80,29.62,2.0,West,5.8,-,0.00,Snow,Light Snow,270,2013-03-04 14:06:00
9:15 AM,24.8,17.6,74,29.61,7.0,West,8.1,-,0.00,Snow,Light Snow,270,2013-03-04 14:15:00
9:52 AM,25.0,18.0,75,29.66,8.0,West,6.9,-,0.00,Snow,Light Snow,270,2013-03-04 14:52:00
10:41 AM,24.8,17.6,74,29.61,2.5,West,4.6,-,0.00,Snow,Light Snow,280,2013-03-04 15:41:00
10:50 AM,24.8,17.6,74,29.61,3.0,West,9.2,-,0.00,Snow,Light Snow,280,2013-03-04 15:50:00
10:52 AM,25.0,18.0,75,29.65,3.0,WSW,6.9,-,0.00,Snow,Light Snow,250,2013-03-04 15:52:00
11:00 AM,24.8,17.6,74,29.60,2.0,West,6.9,-,0.00,Snow,Light Snow,270,2013-03-04 16:00:00
11:14 AM,24.8,17.6,74,29.60,5.0,WSW,4.6,-,0.01,Snow,Light Snow,250,2013-03-04 16:14:00
11:52 AM,26.1,18.0,71,29.65,6.0,West,6.9,-,0.01,Snow,Light Snow,280,2013-03-04 16:52:00
12:22 PM,26.6,19.4,74,29.60,2.5,West,6.9,-,0.00,Snow,Light Snow,260,2013-03-04 17:22:00
12:52 PM,27.0,19.0,72,29.65,2.0,NW,10.4,-,0.00,Snow,Light Snow,310,2013-03-04 17:52:00
1:05 PM,26.6,19.4,74,29.60,1.2,NW,11.5,-,0.00,Snow,Light Snow,320,2013-03-04 18:05:00
1:52 PM,26.1,19.0,75,29.65,1.2,WNW,11.5,-,0.01,Snow,Light Snow,300,2013-03-04 18:52:00
2:01 PM,26.6,19.4,74,29.61,1.0,WNW,11.5,18.4,0.00,Snow,Light Snow,300,2013-03-04 19:01:00
2:11 PM,24.8,21.2,86,29.62,0.8,NW,6.9,-,0.00,Snow,Light Snow,310,2013-03-04 19:11:00
2:18 PM,24.8,19.4,80,29.62,1.2,WNW,9.2,-,0.00,Snow,Light Snow,300,2013-03-04 19:18:00
2:38 PM,24.8,19.4,80,29.62,0.8,WNW,8.1,-,0.01,Snow,Light Snow,290,2013-03-04 19:38:00
2:52 PM,25.0,19.9,81,29.68,1.2,WNW,9.2,-,0.01,Snow,Light Snow,290,2013-03-04 19:52:00
3:04 PM,24.8,19.4,80,29.63,3.0,WNW,8.1,-,0.01,Snow,Light Snow,300,2013-03-04 20:04:00
3:48 PM,24.8,19.4,80,29.64,2.5,NW,5.8,-,0.01,Snow,Light Snow,320,2013-03-04 20:48:00
3:52 PM,25.0,19.0,78,29.69,2.0,NW,6.9,-,0.01,Snow,Light Snow,310,2013-03-04 20:52:00
4:00 PM,24.8,19.4,80,29.65,1.5,NW,3.5,-,0.00,Snow,Light Snow,320,2013-03-04 21:00:00
4:11 PM,24.8,19.4,80,29.65,2.5,NNE,3.5,-,0.00,Snow,Light Snow,30,2013-03-04 21:11:00
4:13 PM,24.8,19.4,80,29.65,3.0,Calm,Calm,-,0.00,Snow,Light Snow,0,2013-03-04 21:13:00
4:52 PM,24.1,19.0,81,29.73,10.0,Calm,Calm,-,0.00,,Overcast,0,2013-03-04 21:52:00
5:11 PM,24.8,19.4,80,29.68,9.0,North,3.5,-,0.00,Snow,Light Snow,10,2013-03-04 22:11:00
5:39 PM,24.8,17.6,74,29.69,10.0,Calm,Calm,-,0.01,,Overcast,0,2013-03-04 22:39:00
5:52 PM,24.1,18.0,77,29.76,10.0,Calm,Calm,-,0.01,,Overcast,0,2013-03-04 22:52:00
6:52 PM,23.0,19.0,85,29.78,10.0,Calm,Calm,-,N/A,,Overcast,0,2013-03-04 23:52:00
7:52 PM,23.0,19.9,88,29.80,6.0,Calm,Calm,-,N/A,,Overcast,0,2013-03-05 00:52:00
8:00 PM,23.0,19.4,86,29.75,7.0,Calm,Calm,-,N/A,,Overcast,0,2013-03-05 01:00:00
8:50 PM,23.0,19.4,86,29.76,10.0,SSW,3.5,-,0.00,,Overcast,210,2013-03-05 01:50:00
8:52 PM,23.0,19.0,85,29.81,10.0,SSW,4.6,-,0.00,,Overcast,210,2013-03-05 01:52:00
9:52 PM,21.9,19.0,89,29.83,10.0,Calm,Calm,-,0.00,Snow,Light Snow,0,2013-03-05 02:52:00
10:48 PM,21.2,19.4,93,29.78,10.0,Calm,Calm,-,0.00,,Overcast,0,2013-03-05 03:48:00
10:52 PM,21.9,19.0,89,29.84,10.0,Calm,Calm,-,0.00,,Overcast,0,2013-03-05 03:52:00
11:52 PM,21.9,18.0,85,29.85,10.0,Calm,Calm,-,0.00,,Overcast,0,2013-03-05 04:52:00